Theta_e
320 321 322 321 322 325 325 326 320 318 319 310 312 314 312 316 317 318 318 318 319 318 318 317 318 318 318 319 319 319 319 319 319 319 319 327 328 325 334 331 321 334 343 344 345 344 345 345 345 344 344 344 345 345 344 344 342 340 339 338 338 339 340 339 339 339 339 338 338 339 339 338 338 339 339 338 339 338 338 337 337 337 337 336 332 330 330 329 325 321 322 322 320 316 315 317 316
321 321 322 322 323 326 325 325 318 313 313 308 311 313 313 317 317 317 317 317 318 318 317 318 318 317 318 318 318 319 319 319 319 319 322 326 327 325 326 326 325 337 344 344 345 344 345 345 344 345 344 344 345 344 344 343 342 340 339 338 338 339 340 338 338 338 338 338 337 337 338 337 337 338 338 338 337 337 337 337 337 336 335 332 331 330 330 329 325 323 321 321 321 316 311 312 313
320 321 322 323 324 326 324 322 317 310 310 308 310 314 316 317 316 316 316 317 317 317 317 317 318 318 318 319 319 319 320 320 319 319 323 326 329 330 325 323 326 337 343 343 345 344 346 345 344 345 344 344 345 345 344 343 342 340 339 339 338 338 340 338 337 337 337 338 336 335 337 336 336 337 337 337 336 336 336 337 335 334 333 332 333 332 330 329 327 324 320 319 319 313 307 306 307
320 322 321 323 325 324 324 321 316 311 308 308 309 315 317 316 316 316 316 317 317 317 318 318 318 318 318 319 319 319 320 319 321 320 324 329 330 330 326 324 327 336 343 344 345 343 345 346 344 344 345 345 344 345 344 343 342 341 340 339 338 337 339 337 335 335 335 337 335 333 335 334 336 337 336 336 335 336 336 335 334 333 332 332 332 330 329 328 328 325 318 317 315 307 302 301 302
321 324 322 324 327 323 323 320 317 314 310 311 311 315 317 316 316 316 317 317 317 317 317 318 318 318 318 318 318 319 320 318 321 321 325 330 325 325 323 323 331 338 341 343 345 343 345 345 344 344 345 344 344 344 343 343 342 341 340 339 339 337 337 336 334 333 332 335 334 334 335 334 336 337 336 336 335 336 336 334 334 331 328 330 330 328 328 327 328 323 316 311 307 301 300 300 300
323 324 323 324 325 323 322 316 314 314 315 318 314 315 317 316 317 316 317 317 317 317 316 317 317 318 317 317 318 318 318 318 322 322 325 327 321 322 325 328 336 338 339 343 344 343 345 345 344 344 344 344 344 344 343 343 342 341 340 339 339 336 336 334 334 333 331 334 335 335 335 335 336 336 335 336 336 336 335 335 332 328 326 328 328 327 327 327 326 321 316 307 300 299 299 299 299
321 322 323 324 323 324 322 314 313 315 317 320 317 316 317 316 316 316 317 317 317 317 316 316 317 317 316 316 318 318 318 318 320 324 326 326 321 323 330 336 339 338 338 342 344 344 344 344 344 344 344 343 343 343 343 343 342 341 340 340 338 336 335 334 334 334 332 334 336 336 337 336 336 336 335 336 335 335 335 334 330 328 328 328 326 327 328 327 324 319 316 307 299 299 298 299 299
321 322 324 325 323 322 319 315 317 318 317 318 318 317 317 317 317 317 317 316 316 316 316 316 317 317 316 316 318 319 319 320 322 327 330 327 324 326 332 339 340 338 339 342 344 343 344 344 343 344 344 343 343 343 343 343 342 342 341 340 338 336 334 334 334 334 333 335 337 337 337 337 337 336 336 335 332 331 332 331 329 329 330 329 328 327 327 326 322 316 312 305 299 298 298 299 298
322 322 323 325 321 318 316 316 317 319 318 317 317 317 317 317 316 317 317 316 316 316 316 315 316 316 316 316 318 319 318 322 326 330 329 324 324 328 332 337 340 341 340 342 343 343 343 342 342 343 343 343 342 342 343 343 342 342 342 341 339 337 335 334 334 334 334 337 337 337 338 337 337 336 337 334 330 330 331 331 331 331 330 330 329 327 327 325 321 315 310 304 300 298 298 298 298
320 320 322 323 318 314 313 314 317 318 318 317 316 316 316 316 316 316 316 316 316 316 316 315 316 316 316 316 317 318 317 319 323 326 326 323 322 327 331 331 334 339 340 341 342 342 342 341 342 343 343 342 341 341 343 343 342 342 342 341 340 338 336 334 334 333 334 337 337 337 338 337 337 336 337 334 331 331 331 332 332 331 330 330 330 329 328 325 322 317 311 305 301 298 298 298 298
319 318 320 320 314 311 311 313 317 318 318 317 316 316 315 316 316 316 316 316 316 315 316 315 316 316 315 316 317 317 316 315 318 321 325 327 322 323 328 326 328 335 337 339 341 341 341 339 341 343 343 342 341 341 342 342 342 342 342 341 340 338 337 335 333 333 333 336 337 337 338 337 337 336 337 334 332 332 332 333 331 331 331 330 330 329 329 327 324 319 313 308 304 300 298 298 298
320 317 319 317 313 312 314 314 316 318 318 317 316 315 315 315 316 316 316 316 315 316 316 315 315 315 316 316 317 317 315 312 315 318 321 329 328 322 324 325 325 329 331 335 338 339 339 338 339 342 343 342 341 340 341 342 342 342 342 341 341 339 338 337 334 332 332 335 336 337 337 337 337 336 337 335 334 333 333 334 331 331 331 330 330 329 328 327 325 321 316 311 307 303 299 298 298
320 318 318 315 315 315 314 315 317 318 317 317 316 315 315 315 316 316 315 316 316 316 316 315 315 315 316 316 316 317 315 311 312 315 318 326 330 328 328 328 327 328 329 332 336 338 338 338 338 339 340 341 340 340 340 340 341 342 341 340 341 340 339 338 336 334 331 333 335 337 337 337 337 336 337 336 334 333 334 333 331 331 331 330 329 329 328 327 325 321 319 316 311 307 302 299 298
321 318 319 317 317 316 314 316 317 315 315 317 315 315 315 315 315 315 315 316 316 316 315 315 315 315 316 316 316 316 314 311 311 315 320 325 330 331 331 331 328 329 332 333 336 337 337 337 337 338 339 339 340 340 339 339 340 341 341 341 340 340 340 339 337 335 332 331 333 335 336 336 337 336 336 336 334 334 334 333 332 331 330 330 329 328 328 326 325 323 321 320 315 311 306 301 298
321 318 319 317 315 314 315 317 316 314 315 316 315 315 315 315 315 315 315 315 315 316 315 314 315 315 316 315 316 314 312 312 311 316 324 327 329 330 330 331 330 328 331 334 335 336 336 336 337 337 338 339 340 340 339 338 338 339 340 340 340 340 340 339 338 336 333 331 330 332 334 335 336 336 336 335 334 334 334 333 332 331 330 329 329 328 327 326 325 323 322 322 319 315 311 306 301
319 319 319 315 313 313 314 317 316 315 316 316 315 315 315 315 314 314 315 314 315 316 315 314 315 314 315 314 313 312 311 312 313 317 323 325 327 330 328 328 331 329 329 332 334 335 335 335 336 337 337 338 339 340 340 340 339 338 339 340 340 339 339 339 338 337 335 332 330 330 331 332 334 335 335 335 334 334 334 332 332 331 330 329 329 328 326 325 324 323 323 323 321 317 314 311 306
319 321 318 314 312 312 314 316 315 314 316 316 315 315 316 316 315 315 314 313 314 315 315 314 314 314 313 313 312 312 312 313 314 316 319 320 322 326 324 321 325 327 327 330 332 332 334 335 335 336 337 337 338 339 340 341 340 339 339 340 339 339 339 338 338 337 336 334 332 330 329 330 333 334 334 334 334 334 334 332 331 331 330 330 328 327 326 325 324 324 324 323 322 319 316 315 313
320 321 316 313 313 313 314 316 316 316 317 316 315 315 314 315 315 315 314 314 315 315 315 314 313 313 313 313 312 312 313 313 314 316 316 317 318 318 319 317 318 319 320 323 324 325 329 333 334 335 336 336 337 338 339 340 340 339 339 339 338 338 338 338 338 337 336 335 334 332 331 332 334 335 334 334 334 334 334 333 332 331 330 330 328 328 327 326 325 324 324 323 322 320 319 319 317
319 318 315 314 316 314 314 316 316 316 317 315 315 315 314 315 315 314 314 315 316 316 316 314 313 313 314 313 313 313 313 314 314 315 316 316 316 316 317 316 317 317 316 317 318 318 320 326 332 334 335 336 336 337 338 339 339 339 339 339 339 339 338 338 338 337 337 336 335 334 334 335 335 334 334 334 333 334 334 333 332 331 331 330 329 328 328 326 325 325 324 323 323 322 320 321 320
318 318 317 316 316 315 314 315 315 315 315 315 315 314 314 315 314 314 314 315 316 316 315 314 314 314 314 313 313 313 313 314 314 315 316 316 316 316 316 316 316 316 316 316 317 317 317 319 325 331 334 334 336 336 337 338 338 339 339 339 339 339 339 338 338 338 337 337 336 336 337 336 334 334 334 333 332 333 333 333 332 332 331 330 329 329 328 326 325 325 325 324 323 322 321 320 320
318 317 317 316 315 315 315 314 315 315 314 315 315 314 314 315 314 314 314 315 316 315 313 313 313 313 313 312 313 313 313 313 314 314 315 315 316 316 315 315 315 315 316 317 318 318 318 316 317 325 332 333 335 336 336 336 337 338 338 338 339 339 338 338 338 337 337 337 336 336 338 337 335 335 334 333 333 332 332 332 332 331 331 331 330 329 329 327 326 327 326 324 324 322 322 320 319
317 316 316 315 315 315 316 315 315 315 314 314 314 315 315 314 314 314 314 315 316 313 311 311 311 312 311 311 312 313 313 313 313 314 314 314 314 315 315 314 314 315 316 317 318 318 318 317 316 320 328 332 334 336 335 335 336 337 337 337 338 338 338 338 338 337 337 336 336 336 337 337 336 335 335 334 333 333 333 332 332 331 332 331 329 329 329 328 327 327 326 325 324 323 322 321 320
317 316 315 315 315 315 316 315 314 314 314 314 314 314 314 314 314 314 313 313 313 311 310 311 310 311 311 311 312 312 312 313 313 313 313 313 313 314 314 313 313 314 316 317 317 317 317 317 316 316 325 331 332 335 335 335 336 336 336 336 336 337 337 337 337 336 336 336 336 336 335 335 335 335 334 334 333 333 333 332 332 331 331 331 330 330 329 328 327 327 326 325 324 323 323 321 320
316 317 316 316 315 315 315 315 314 313 313 314 314 313 313 314 315 313 312 312 310 310 311 311 311 311 311 311 311 311 312 312 312 312 312 312 312 313 313 313 313 313 314 315 315 316 317 317 316 314 322 330 331 333 335 334 335 335 336 336 336 335 335 336 336 336 337 337 336 336 335 335 335 334 334 334 334 333 332 332 331 331 330 330 330 329 329 329 328 327 326 325 324 323 323 321 320
316 316 316 315 314 315 315 314 314 313 313 314 313 312 314 315 314 313 312 311 310 310 311 311 311 311 311 310 310 311 311 311 311 311 312 312 311 312 312 312 313 313 313 314 315 315 316 318 318 316 321 329 330 331 333 334 334 335 335 335 335 335 334 335 335 335 336 336 336 335 335 334 334 334 334 334 334 333 332 332 332 331 331 331 330 329 329 329 328 327 326 325 324 324 323 322 321
315 315 315 314 314 315 315 314 314 314 314 313 313 314 315 313 313 312 310 310 310 310 310 310 310 310 310 309 309 311 311 311 310 311 312 312 311 311 311 311 312 312 313 314 314 315 316 318 320 320 324 329 329 330 332 333 334 335 334 334 334 334 334 334 334 334 334 334 333 333 332 331 332 333 334 334 334 333 332 332 332 331 331 331 330 330 329 329 327 327 326 325 324 324 323 322 321
314 314 314 314 315 315 314 315 315 314 314 313 313 315 315 311 312 313 310 309 310 310 310 310 310 310 309 308 309 310 310 310 309 310 311 311 311 310 310 310 310 311 313 315 315 315 317 319 321 322 325 328 329 330 332 333 333 333 334 333 332 332 332 332 332 332 332 332 331 331 331 331 331 333 334 334 333 333 332 332 331 330 330 330 330 330 329 328 327 326 325 325 324 324 322 321 321
313 313 315 315 315 315 315 315 315 314 314 313 313 315 314 311 312 313 309 309 310 311 311 310 310 310 309 308 308 309 309 309 309 309 310 309 309 309 309 309 309 310 312 314 316 317 319 321 323 323 325 328 329 331 332 333 332 331 332 331 330 329 330 330 329 330 330 330 330 330 330 330 331 331 331 332 333 332 331 331 330 330 330 329 329 329 328 328 327 326 325 324 324 323 322 321 321
313 313 315 317 317 317 316 315 314 314 313 312 312 314 314 313 313 312 308 308 310 311 311 310 310 309 309 308 308 309 309 308 308 308 308 308 308 307 308 308 308 311 313 315 316 319 320 321 323 325 327 329 329 330 330 331 330 329 329 329 328 328 328 328 328 328 328 328 329 329 329 329 329 329 328 329 330 329 328 328 328 328 328 328 327 326 326 326 325 325 325 324 323 322 322 321 320
314 315 315 316 318 317 316 314 313 314 313 311 313 314 315 315 313 312 310 310 311 312 312 311 310 309 308 308 308 308 308 308 307 307 306 306 306 306 307 307 308 311 314 316 317 317 318 320 323 325 327 329 328 328 328 328 328 328 327 327 327 327 327 327 327 327 327 327 327 327 328 327 328 328 326 325 327 327 326 326 325 325 325 325 325 325 325 324 324 324 324 323 323 323 321 320 320
315 316 316 317 317 316 315 314 314 315 312 311 313 314 315 315 313 311 310 310 311 312 312 311 310 309 308 308 308 308 308 307 306 305 305 306 305 306 306 307 309 312 313 315 317 316 318 319 320 322 325 327 326 325 325 325 325 325 325 325 325 325 325 325 325 325 325 326 326 326 326 326 327 326 325 325 326 325 325 325 323 322 323 323 323 323 322 321 321 322 321 321 321 320 319 318 318
316 316 315 318 317 316 317 314 314 316 313 311 313 315 316 315 312 311 310 310 311 312 312 311 309 309 308 308 308 308 307 307 306 305 305 305 305 305 306 306 309 312 312 314 315 316 319 319 319 321 323 324 324 324 324 324 323 323 323 323 322 323 323 323 323 323 324 324 324 324 324 325 324 323 321 322 323 322 322 322 320 319 320 319 318 318 318 318 318 318 318 318 318 317 315 315 315
318 316 315 317 317 317 317 314 313 314 314 313 314 315 317 316 312 311 310 311 312 312 312 310 309 308 308 308 307 307 307 307 306 305 304 304 304 304 305 306 309 311 310 312 313 315 319 320 320 321 321 322 323 322 322 322 321 321 321 321 320 320 320 320 320 320 320 320 320 320 321 322 322 321 319 319 319 319 318 317 317 315 315 315 313 313 314 314 314 314 314 314 314 313 312 311 311
317 318 317 317 317 317 316 315 314 314 315 316 315 316 317 316 313 311 311 311 312 313 312 310 309 308 307 307 307 307 307 306 305 304 303 303 304 304 304 305 307 309 308 310 312 314 317 319 320 319 319 322 321 320 320 320 320 319 319 319 318 318 317 316 316 316 316 316 315 315 316 317 317 317 316 316 316 315 314 314 314 313 313 312 310 310 311 311 310 310 311 311 310 309 308 308 307
316 317 317 317 318 316 316 316 315 314 315 316 317 316 317 317 313 311 311 311 312 312 311 309 308 308 307 307 307 306 306 305 304 303 303 303 304 304 303 304 306 307 307 308 310 312 314 315 316 316 317 318 318 317 316 315 316 315 315 314 313 313 312 311 311 311 311 311 311 310 311 312 312 312 312 312 312 311 311 310 310 310 310 309 308 307 306 306 307 307 307 309 309 306 304 305 304
317 318 317 317 317 317 318 318 314 314 316 316 317 317 318 318 315 312 311 311 312 312 310 309 308 307 307 306 306 306 305 305 304 303 303 302 303 303 303 303 304 305 306 307 309 310 311 312 313 313 313 313 313 313 312 311 310 309 309 308 307 306 305 305 305 304 304 304 304 305 306 307 307 307 306 305 306 306 306 305 305 305 304 304 303 303 302 303 304 305 306 306 307 305 302 303 302
317 318 318 318 317 317 319 318 314 313 316 316 317 318 317 318 317 314 311 310 311 311 310 310 308 308 307 307 306 306 305 304 304 303 302 302 303 303 303 303 304 304 305 306 307 308 310 311 311 310 310 310 311 310 309 308 306 305 305 303 302 301 300 301 301 301 301 301 301 301 301 302 302 302 302 301 301 302 302 302 302 302 301 301 300 300 300 301 301 303 305 304 305 304 302 301 301
317 317 317 318 318 318 319 318 314 313 315 316 318 318 318 318 318 314 311 311 312 311 311 310 308 307 307 306 306 305 305 304 304 303 302 302 303 303 303 302 303 304 304 304 306 307 309 309 309 308 308 308 308 308 308 307 305 304 302 301 300 299 299 299 299 299 300 300 300 300 300 300 300 300 300 300 300 300 300 300 300 301 301 300 299 298 298 299 299 300 302 303 304 303 302 301 300
318 318 318 318 319 319 319 318 315 313 315 317 318 318 318 318 317 314 311 312 311 310 309 309 308 307 306 306 305 305 305 304 303 303 302 302 303 303 302 302 302 302 303 303 305 306 307 307 307 306 307 308 307 307 307 306 304 303 302 300 300 299 298 297 297 297 298 298 298 298 298 298 298 298 298 299 298 298 297 297 297 297 297 297 296 295 295 295 296 297 297 299 302 302 301 300 300
318 318 318 319 320 320 320 318 315 313 315 317 318 317 318 318 316 312 310 310 308 306 306 307 307 306 306 305 305 305 305 304 303 302 302 302 302 302 302 302 302 302 302 302 303 304 305 305 305 305 306 307 307 308 308 306 304 303 301 299 298 297 295 295 294 294 294 294 293 293 293 293 293 293 293 293 293 293 292 292 293 293 293 294 293 292 291 291 292 294 294 295 298 300 300 298 299
319 319 319 319 320 320 320 319 316 315 316 315 316 318 319 319 318 314 309 307 306 305 305 305 305 305 305 304 304 304 304 304 303 302 302 302 302 302 301 301 301 301 301 301 302 302 303 303 304 304 304 304 305 305 305 304 302 300 298 296 295 294 293 293 292 291 291 290 290 289 289 289 289 289 289 289 289 289 289 289 290 290 291 291 292 292 291 290 290 291 292 292 293 296 297 296 296
320 321 320 320 320 320 320 320 319 319 320 317 316 321 320 319 320 317 310 307 307 306 305 305 305 303 303 303 303 303 302 302 302 302 301 301 301 301 301 301 300 300 299 299 300 301 302 302 302 303 302 302 302 302 302 301 300 298 297 296 295 294 293 292 292 291 291 290 290 289 289 288 288 288 288 288 288 288 288 289 289 289 289 290 290 290 290 290 289 289 290 291 291 292 294 294 293
321 321 320 320 320 320 320 321 320 321 322 317 315 321 321 319 319 317 311 309 309 307 306 306 305 303 303 304 303 302 302 301 301 301 301 301 301 301 300 300 299 299 298 298 299 300 301 301 302 302 301 301 301 300 300 300 298 297 296 295 293 293 292 292 291 291 291 291 290 289 289 288 288 288 288 288 288 288 288 288 288 288 288 288 289 289 289 289 289 288 289 290 291 291 291 292 292
323 320 319 319 319 320 321 321 320 321 321 318 315 319 321 320 319 316 312 312 310 308 308 307 305 304 304 304 303 302 302 301 301 300 301 301 300 300 299 298 298 298 297 297 298 299 300 300 300 300 300 299 299 298 298 297 296 294 293 293 292 292 292 291 291 291 291 291 291 290 290 289 288 288 288 288 288 288 288 288 288 288 288 288 288 288 288 288 288 288 288 288 290 290 291 291 291
321 317 317 318 318 320 320 320 320 319 320 321 319 319 321 322 319 315 313 314 313 310 309 307 305 304 304 303 303 302 301 301 301 300 300 300 299 298 298 297 297 296 296 297 297 298 298 298 299 298 298 297 297 297 296 295 293 292 292 292 292 292 292 292 292 292 292 292 291 291 291 290 289 288 288 288 288 288 288 287 287 288 287 287 287 287 287 287 287 287 287 287 287 289 289 290 290
317 315 316 317 317 318 319 319 319 319 320 322 321 320 321 322 319 316 315 315 316 313 310 308 306 305 304 303 302 301 301 300 300 300 300 299 298 297 297 296 296 296 296 296 296 296 296 297 297 297 296 295 295 294 293 292 292 292 292 292 292 292 292 292 292 292 292 292 291 291 291 290 290 289 288 287 287 287 287 287 287 287 287 287 287 287 287 287 287 287 287 287 287 287 287 288 289
315 316 317 317 317 316 317 317 318 320 321 321 321 320 321 322 320 319 318 317 317 314 310 308 306 305 304 303 302 301 300 299 299 299 299 298 297 296 296 296 295 295 295 295 295 295 295 295 295 295 294 293 293 292 292 292 292 292 293 293 293 293 293 293 292 292 292 292 291 291 291 290 290 289 288 287 287 287 287 287 287 287 287 286 286 286 286 286 286 286 286 286 286 286 286 287 287
315 317 318 318 318 317 317 317 317 321 324 319 317 318 321 322 320 318 316 314 315 314 311 308 306 305 305 303 302 301 300 300 299 298 298 297 297 296 296 295 295 295 295 295 295 294 294 293 293 293 292 292 292 291 291 291 291 292 292 293 293 293 293 293 292 292 292 292 291 291 290 290 289 289 288 287 287 287 286 286 286 286 286 286 286 286 286 286 286 286 286 286 286 286 285 286 286
315 317 318 320 322 320 321 321 319 323 322 315 313 316 320 321 319 317 315 313 313 313 311 309 306 306 305 303 302 301 300 300 299 298 298 297 297 296 296 295 295 295 294 294 294 293 293 292 292 292 291 291 290 290 290 291 291 291 291 291 291 292 292 292 292 292 291 291 291 290 290 289 289 288 287 287 287 286 286 286 286 286 286 286 286 285 285 285 285 286 287 286 286 286 285 285 286
315 317 318 322 324 324 325 324 322 323 319 312 312 315 318 319 318 316 313 311 310 310 310 309 307 306 305 303 302 301 300 299 299 298 298 298 298 297 296 295 295 294 294 293 293 293 292 292 291 291 291 291 290 290 290 290 290 290 290 290 290 291 291 291 291 291 291 290 290 290 289 289 288 288 287 286 286 286 286 286 286 286 286 285 285 285 285 285 284 285 286 285 285 285 284 284 285
315 317 318 321 323 324 326 324 324 323 317 312 312 316 319 318 315 311 308 307 307 307 308 308 307 306 305 303 302 301 300 299 299 298 298 298 298 297 296 295 295 294 293 293 293 293 292 292 291 291 290 290 290 290 290 290 290 290 290 290 290 291 291 291 290 290 290 290 289 289 289 288 288 287 286 286 286 286 286 286 286 286 285 285 285 284 284 284 284 284 286 285 284 284 283 283 284
316 316 318 320 320 320 320 319 319 318 317 315 313 315 317 315 311 307 306 306 305 305 306 307 307 306 304 303 302 301 300 299 299 299 298 299 297 297 296 295 294 293 293 293 293 292 292 291 291 291 290 290 290 290 290 290 290 290 290 290 290 290 290 290 290 289 289 289 289 288 288 287 287 287 286 286 286 285 285 285 285 285 285 284 284 284 283 283 283 284 284 284 284 283 282 282 283
317 316 318 317 317 317 318 317 314 314 319 320 316 316 316 314 311 308 306 307 306 305 305 306 306 305 304 303 302 301 300 300 299 299 299 298 297 297 296 295 294 293 293 293 293 292 291 291 291 291 290 290 290 290 290 290 290 290 290 290 290 290 289 289 289 289 288 288 288 288 287 287 286 286 285 285 285 285 285 285 285 284 284 284 283 283 283 283 282 283 283 283 283 283 282 282 283
316 317 317 316 315 316 317 319 319 318 322 322 318 318 318 317 316 310 307 309 308 306 306 305 306 305 304 304 303 302 301 300 299 299 299 298 297 296 296 295 294 293 293 292 292 291 291 291 290 290 290 290 290 290 290 290 290 290 290 289 289 289 289 289 289 288 288 288 288 287 287 286 286 285 285 285 285 284 284 284 284 284 283 283 283 282 282 282 282 282 282 282 283 282 281 281 282
313 315 316 315 318 319 318 320 322 322 324 322 319 318 317 318 318 312 310 311 309 308 306 305 305 305 304 304 303 302 301 300 299 299 298 298 297 296 296 295 293 293 292 292 291 291 291 291 290 290 290 290 290 290 290 290 289 289 289 289 289 289 289 289 289 288 288 287 287 287 286 286 285 285 285 284 284 284 284 284 284 283 283 282 282 282 282 281 281 281 281 281 281 281 280 281 281
311 312 314 314 316 318 318 319 319 321 322 322 320 318 317 318 316 314 314 312 310 309 307 306 305 305 305 304 304 303 302 301 299 298 298 298 297 296 296 294 293 293 292 291 291 291 291 290 290 290 290 290 290 290 290 289 289 289 289 289 289 289 289 288 288 288 287 286 286 286 286 285 285 285 284 284 284 284 284 284 283 283 282 282 281 281 281 280 280 280 280 280 280 280 280 280 280
312 313 315 314 314 314 315 317 317 318 320 321 321 320 319 316 313 314 314 313 312 310 308 307 306 305 305 305 304 303 302 301 300 299 299 298 297 296 295 294 293 292 292 291 291 291 291 291 291 290 290 290 290 290 290 289 289 289 288 288 288 288 288 288 288 287 287 286 286 286 286 285 285 284 284 284 284 284 284 283 283 282 281 281 280 280 280 279 279 279 279 279 279 279 279 279 280
314 314 315 316 315 315 317 319 317 315 317 319 319 320 319 314 310 311 312 311 311 311 309 309 307 306 305 305 304 304 303 302 300 299 299 298 297 296 295 294 293 292 292 291 291 291 291 291 291 290 290 290 290 290 290 289 289 288 288 288 288 288 288 288 287 287 286 286 286 286 285 285 284 284 284 284 284 284 283 283 282 281 281 280 280 279 279 279 278 278 278 278 278 278 279 279 279
Wind_Speed
10 9 9 9 7 7 5 4 1 1 0 4 3 2 5 4 1 1 4 3 2 5 6 4 4 3 5 5 6 7 5 7 8 5 4 4 3 4 6 1 3 7 10 15 12 15 17 16 16 14 14 13 13 13 13 12 10 10 9 8 7 9 9 9 10 10 10 9 9 8 8 8 8 8 8 9 9 10 10 11 11 11 10 10 10 9 9 9 9 9 10 10 10 9 7 6 5
10 10 9 8 6 6 1 2 2 2 2 4 4 4 5 2 1 4 7 5 5 5 3 3 3 2 4 5 6 4 2 6 8 5 6 6 7 9 3 3 4 7 9 13 12 14 15 15 17 14 14 13 13 13 13 12 11 10 9 8 7 8 8 9 9 9 10 9 8 8 8 8 8 8 7 8 9 9 10 10 10 10 10 10 11 11 10 10 10 10 11 11 9 8 6 5 5
9 9 8 7 5 5 2 2 2 1 2 4 5 4 2 2 6 6 7 6 6 5 2 2 2 1 5 5 2 3 4 7 7 4 6 7 5 9 2 3 3 7 9 12 12 12 13 14 17 15 14 13 13 13 12 12 11 10 9 8 7 8 8 9 10 10 10 8 7 8 8 8 8 8 7 7 8 9 9 9 9 10 10 11 12 11 11 10 11 11 13 13 10 6 5 5 4
9 8 7 6 4 3 3 2 2 2 1 3 4 4 2 5 7 6 6 5 5 3 2 3 1 1 4 2 3 2 5 7 9 6 4 9 6 10 3 4 3 6 8 11 12 11 12 14 16 16 14 13 13 13 12 11 11 10 9 8 8 8 8 9 9 9 10 8 7 8 7 8 8 8 8 7 8 8 9 9 9 10 11 11 11 11 11 11 11 12 15 14 9 6 5 4 4
8 7 6 6 3 1 2 1 1 1 3 3 4 6 4 6 6 6 6 5 4 3 4 5 2 3 1 4 4 3 5 3 8 10 6 7 8 11 2 4 4 3 7 10 11 10 12 13 15 16 15 13 13 12 11 10 10 10 8 8 8 8 8 9 9 9 9 8 8 8 7 8 8 8 8 8 8 8 8 8 8 10 11 11 11 12 11 11 10 13 16 14 9 7 6 5 4
8 6 4 4 1 1 2 1 0 3 5 5 4 7 5 6 5 4 5 5 3 3 4 4 4 1 1 4 4 6 8 5 4 9 8 7 10 9 3 3 3 2 7 10 10 9 11 13 14 16 14 14 13 12 11 10 10 9 8 8 8 7 7 10 10 9 9 8 8 8 8 8 7 8 8 8 8 7 7 7 7 9 11 12 13 13 12 11 11 13 15 14 11 8 7 7 5
6 4 3 3 1 1 3 1 2 4 5 6 5 6 6 6 3 1 3 4 3 2 2 3 5 5 0 3 3 8 11 9 5 7 9 10 9 4 6 4 3 3 6 8 9 8 9 10 14 16 14 13 13 11 11 9 9 9 8 8 8 8 7 10 10 9 9 8 8 7 8 9 8 8 8 8 6 5 6 6 7 9 11 12 13 14 13 11 12 14 14 13 11 9 8 8 7
5 3 1 2 1 1 2 2 3 3 4 4 6 6 6 5 2 1 2 2 2 3 2 3 4 4 3 0 1 8 12 12 7 8 10 9 6 5 7 5 5 4 5 6 7 8 8 8 13 17 14 13 13 11 10 9 9 9 9 8 8 8 8 9 10 9 8 7 7 6 7 8 8 8 9 8 7 5 6 7 7 9 11 12 12 14 13 12 13 15 15 14 11 10 9 8 7
5 2 1 2 1 1 0 3 3 4 5 4 5 6 5 4 2 2 2 3 3 2 3 4 6 5 3 1 4 8 10 11 8 11 13 11 6 5 6 5 6 5 5 5 5 7 8 8 13 17 15 13 13 11 10 9 10 9 9 8 7 8 7 8 10 9 8 7 7 6 6 7 8 8 9 8 7 7 8 7 7 8 10 10 11 12 12 13 14 14 14 13 11 10 10 9 8
3 1 1 2 1 2 2 3 3 4 6 5 5 6 4 2 1 1 2 2 3 2 4 4 4 4 4 1 5 6 7 10 9 12 13 12 8 5 4 5 8 6 4 4 5 6 8 9 14 18 15 14 13 12 10 9 9 10 10 9 8 8 6 7 9 10 8 7 7 6 5 6 8 9 9 8 7 7 7 7 7 8 8 9 9 10 12 13 14 13 13 13 11 10 10 9 8
2 1 1 2 2 2 1 3 4 4 6 6 6 5 3 2 1 1 2 1 2 0 3 2 2 4 5 1 4 6 9 13 12 12 11 11 10 5 3 5 8 6 5 5 4 5 6 6 12 19 16 15 14 12 11 9 9 10 10 8 8 8 6 6 7 10 9 8 7 6 5 6 8 9 9 8 6 6 7 6 7 7 7 7 8 10 11 13 13 13 12 12 11 10 9 9 8
2 1 2 3 1 1 2 3 5 5 7 6 6 5 2 0 2 1 2 1 2 1 3 3 3 4 6 2 4 7 11 16 13 12 10 8 8 7 3 3 5 6 5 6 5 5 6 4 9 17 18 17 15 14 13 10 9 10 9 8 8 7 7 5 5 8 10 9 7 5 4 5 7 8 9 8 6 6 6 5 5 6 5 6 7 9 11 12 13 12 12 11 11 10 9 8 8
2 2 3 2 2 2 2 2 4 5 5 5 5 5 1 1 0 3 3 3 2 2 4 5 3 3 6 0 5 7 9 15 12 11 9 6 5 6 5 1 1 3 3 5 5 4 6 4 5 11 16 17 16 15 15 13 10 10 10 10 9 7 6 5 4 6 10 10 8 5 3 4 7 8 8 8 7 6 5 4 4 4 4 6 7 9 10 11 12 13 12 11 10 10 9 8 7
2 2 4 1 1 1 1 1 4 4 4 6 4 3 1 0 3 3 4 5 2 3 4 3 3 3 4 2 4 4 8 14 13 9 7 5 3 3 4 3 2 1 2 3 4 4 4 4 5 8 11 14 15 15 16 16 13 11 11 11 10 8 7 5 4 5 8 10 9 7 4 3 6 8 7 7 8 6 5 4 3 3 3 5 7 8 10 10 12 13 14 13 9 8 9 7 7
3 1 2 0 2 2 1 0 3 4 3 8 3 2 1 1 2 2 3 5 3 5 2 0 1 3 2 2 1 4 11 15 14 9 4 3 3 2 4 4 3 3 2 3 3 3 3 4 5 6 8 10 12 13 13 15 15 14 12 11 11 10 8 6 5 4 6 8 9 9 7 4 4 6 8 8 8 7 6 4 2 1 2 5 6 8 10 11 12 13 15 16 11 7 8 7 7
3 1 3 2 1 2 2 1 2 3 4 7 3 2 2 4 3 3 2 4 5 2 2 1 2 3 4 4 5 8 12 14 11 7 2 1 2 3 4 4 3 4 4 3 2 2 3 4 4 5 7 8 10 12 12 13 15 16 14 13 12 11 10 8 6 5 5 6 8 9 9 6 4 5 6 7 9 9 7 4 3 2 3 5 7 9 10 10 11 13 15 17 16 10 6 7 8
2 2 3 2 2 1 2 3 2 1 5 6 4 1 4 2 3 1 0 4 7 3 3 1 3 3 6 5 6 9 10 12 10 5 3 2 1 3 4 4 3 4 5 4 2 1 2 3 4 5 6 7 8 10 11 11 13 14 15 14 13 12 11 10 8 7 7 7 7 8 8 7 6 6 5 7 10 10 8 6 5 3 3 4 7 8 9 9 10 13 13 15 17 13 8 8 9
3 2 2 1 1 1 2 1 2 2 4 5 3 2 4 2 1 1 2 6 6 6 3 5 7 8 9 8 7 8 9 11 10 8 7 5 4 3 3 5 4 4 4 3 3 2 1 2 4 5 5 6 7 9 9 10 11 12 13 14 14 13 12 11 10 10 9 9 8 7 7 7 7 6 6 8 10 11 11 8 6 4 4 5 7 8 8 9 8 10 12 14 16 16 12 9 9
2 2 2 0 3 3 3 3 4 2 2 2 2 2 3 4 3 3 5 5 4 7 4 8 8 8 8 9 8 8 9 10 11 10 10 9 8 6 6 5 5 5 5 4 4 4 2 2 3 5 6 6 7 8 8 8 9 9 10 12 14 13 12 12 11 11 10 10 9 8 8 7 8 7 6 7 8 11 12 9 5 5 5 5 7 6 6 7 5 6 11 13 15 17 13 8 8
1 2 3 3 4 3 3 2 4 4 3 2 0 2 3 3 3 4 6 9 7 3 2 4 5 5 6 8 8 8 8 9 11 10 11 11 10 8 8 7 7 7 7 6 5 5 4 3 2 5 7 7 7 8 8 8 8 8 9 11 12 12 12 12 11 12 11 10 9 8 7 7 8 7 7 7 7 9 11 10 7 7 6 6 6 4 3 5 4 3 8 12 12 12 9 6 6
1 2 2 5 3 1 4 3 3 3 2 3 2 1 4 1 2 5 6 9 5 3 7 5 3 5 5 6 7 7 8 9 10 11 11 11 11 9 9 8 7 7 8 7 6 6 6 4 3 4 6 8 7 7 8 7 7 8 8 9 10 11 12 12 11 11 11 11 10 9 7 7 8 8 8 7 7 8 9 11 9 8 7 5 3 3 1 3 3 1 6 9 7 6 6 6 6
1 1 4 4 1 1 4 3 3 2 1 2 3 4 2 1 4 5 6 7 1 5 6 5 5 5 5 6 6 6 8 9 10 11 11 11 11 11 10 9 8 8 8 8 8 8 7 6 4 5 5 7 8 7 7 7 6 7 7 8 8 8 10 11 10 10 10 11 11 9 8 8 9 10 9 8 8 9 8 9 8 7 7 6 3 3 4 0 1 1 2 5 5 5 6 6 7
2 2 3 1 1 1 3 3 3 2 3 4 4 2 3 5 6 3 4 3 4 5 5 5 4 4 4 4 5 6 7 8 10 10 11 11 12 12 11 10 10 9 9 9 9 9 8 8 6 6 7 6 8 7 6 6 6 6 6 7 8 7 8 8 8 8 8 9 9 9 10 9 9 10 10 10 10 10 9 8 8 8 8 7 5 4 5 3 2 2 2 3 4 5 5 6 8
4 0 3 1 1 3 1 2 3 3 5 5 3 3 5 8 4 2 2 3 6 5 5 5 4 4 4 5 6 6 7 8 8 8 8 9 10 10 11 10 10 9 9 11 10 9 9 9 7 4 6 6 8 7 7 6 5 5 4 6 7 5 6 6 6 6 6 7 7 8 9 9 9 9 10 10 10 10 10 9 9 9 8 7 6 5 4 4 4 3 3 1 4 3 5 5 6
3 2 3 1 2 4 3 2 4 5 6 5 4 6 8 6 2 2 3 5 5 4 4 3 3 4 4 6 7 6 7 8 8 8 7 7 8 9 10 10 10 10 10 11 10 9 9 9 7 1 4 5 7 7 7 5 4 4 2 3 5 4 4 3 2 3 3 3 3 5 7 8 10 9 9 9 9 10 9 8 8 8 8 8 6 6 5 4 3 3 2 1 3 2 3 3 4
1 3 1 2 4 5 5 6 7 6 5 3 5 9 7 2 2 3 3 4 5 4 3 2 2 4 5 6 6 7 7 8 8 8 8 7 8 10 11 11 11 11 11 11 10 9 9 8 6 2 4 6 6 7 7 5 4 3 3 3 3 3 3 1 2 3 2 2 1 2 4 6 7 9 10 9 8 9 9 8 8 7 8 9 8 8 7 5 3 3 1 1 3 2 2 2 3
2 3 4 7 7 6 6 7 6 5 5 6 7 9 3 5 4 3 5 6 5 4 3 3 2 4 5 5 6 7 8 9 9 9 9 8 9 10 11 11 12 12 11 11 11 10 9 7 6 4 3 8 8 8 7 6 6 6 7 8 7 5 4 4 5 5 4 3 2 1 0 1 3 6 10 10 10 9 9 9 9 9 9 9 9 10 9 7 4 5 4 4 4 2 2 2 2
2 4 7 8 8 8 9 8 5 4 4 5 7 6 4 6 4 2 7 7 5 4 4 3 2 3 4 4 4 5 6 7 7 7 9 9 8 10 10 11 12 11 11 12 13 11 8 8 7 6 5 9 9 10 9 8 9 8 9 11 12 11 7 7 9 8 7 6 6 4 3 3 3 4 4 6 9 8 7 7 8 8 7 6 8 8 8 7 5 5 5 3 4 2 1 2 2
3 4 7 8 9 9 8 5 3 4 2 3 4 5 6 9 5 6 8 6 6 5 4 4 3 3 3 3 3 3 4 5 6 7 8 8 8 9 10 11 12 11 10 11 12 10 10 10 8 7 8 10 12 13 12 11 12 12 12 13 15 15 11 10 11 11 10 10 10 8 6 4 4 5 4 1 2 2 1 0 2 3 0 2 2 3 3 4 4 3 1 2 3 2 1 3 3
4 4 5 7 9 6 5 5 4 4 3 5 4 4 5 9 8 7 6 7 7 6 4 3 2 2 2 2 2 3 4 5 7 7 8 8 8 9 10 10 11 11 11 10 11 12 12 11 8 8 11 13 13 14 15 15 17 17 16 15 16 16 14 15 14 13 13 12 12 12 9 7 6 6 6 6 6 7 8 8 8 9 8 6 6 6 4 2 1 1 2 2 2 2 3 4 5
4 4 4 4 6 2 7 6 5 4 2 6 6 5 2 8 9 6 5 6 7 5 4 3 2 2 2 2 2 3 4 5 7 7 8 8 8 8 9 10 10 11 11 11 11 12 12 13 13 14 14 15 15 16 17 18 19 19 17 15 15 15 15 16 15 13 13 13 13 13 13 12 11 10 9 8 9 10 10 9 9 9 9 8 7 7 6 5 4 3 3 3 4 4 3 5 7
4 4 4 5 3 2 7 6 4 3 2 6 7 5 2 8 8 6 5 6 7 5 4 3 2 2 1 2 2 2 4 4 6 7 9 8 8 9 9 10 10 11 12 12 13 12 14 18 21 21 21 19 19 20 21 21 21 21 21 19 18 17 17 18 17 14 14 14 14 14 13 13 14 14 13 12 12 12 12 12 12 11 9 8 8 8 7 7 7 8 7 5 4 5 6 6 7
5 4 6 4 4 4 3 4 3 2 2 6 8 6 3 6 9 6 5 5 6 5 4 4 3 2 2 1 1 1 2 3 5 8 9 8 9 9 9 9 10 11 12 13 14 16 18 21 24 26 27 25 23 25 25 25 27 27 27 25 24 23 24 24 24 23 22 21 21 19 17 16 17 17 17 18 18 18 18 17 17 16 15 14 14 14 14 13 13 12 12 11 10 8 8 8 9
4 5 5 6 6 6 3 3 5 4 3 5 8 8 8 3 10 8 6 6 6 5 5 5 4 3 2 1 1 1 1 2 4 7 9 9 8 8 8 9 9 10 12 12 14 18 20 22 25 28 30 29 28 31 32 31 32 33 32 30 29 29 29 29 28 27 27 26 26 24 23 22 21 21 20 21 21 21 20 20 18 17 17 17 17 17 16 16 15 14 13 11 11 11 10 11 12
5 4 4 5 6 7 7 3 4 5 4 6 8 9 11 6 9 9 6 6 6 5 5 4 4 4 3 2 2 2 1 3 5 6 7 7 7 7 7 8 8 9 10 12 15 19 21 23 25 27 30 32 32 33 35 34 34 34 33 32 31 30 29 29 28 28 27 26 25 23 22 22 22 22 21 20 20 20 20 19 18 17 16 16 16 17 17 16 15 14 13 11 9 12 15 13 14
8 6 5 7 6 7 10 3 5 3 4 7 10 10 12 11 7 9 7 6 6 5 5 4 4 4 3 3 3 2 2 3 4 5 6 6 6 6 6 6 7 8 10 12 15 18 21 24 27 27 27 29 31 32 32 32 32 32 32 31 30 29 29 29 28 28 27 26 26 25 23 22 21 22 22 21 21 20 20 20 20 19 18 18 18 19 18 17 14 11 11 13 10 11 16 15 17
6 7 7 9 8 9 11 4 5 3 4 7 10 12 12 13 9 8 9 6 6 7 7 6 5 4 4 4 4 3 2 3 3 3 5 5 6 6 5 6 6 7 9 10 13 16 19 22 24 23 21 21 24 26 26 26 26 27 27 26 25 24 27 28 28 28 28 27 26 26 25 24 23 23 23 23 22 21 21 21 20 19 19 21 21 20 19 18 17 13 9 11 11 10 14 18 22
8 8 7 8 8 9 9 3 5 4 2 7 11 13 12 14 11 7 10 8 8 7 7 7 6 5 4 4 4 3 3 3 3 3 4 5 6 6 5 6 6 7 9 10 12 15 16 18 18 18 18 18 19 20 22 23 24 25 25 25 24 25 27 28 28 28 27 27 27 27 26 26 25 24 24 24 24 23 22 22 21 20 19 20 22 21 21 21 21 19 14 11 10 11 13 18 24
8 7 6 8 7 8 9 4 4 3 2 6 8 10 11 13 8 7 8 6 5 4 3 4 5 5 5 4 5 4 4 4 4 4 4 5 5 5 5 5 6 6 8 10 12 14 15 15 15 16 18 20 21 22 25 26 26 27 28 28 29 30 30 30 30 30 29 29 29 29 29 28 28 27 27 26 27 26 25 24 23 21 19 18 20 21 22 23 22 22 21 17 12 11 13 16 22
8 7 6 7 6 5 6 3 3 3 4 6 8 8 11 13 6 7 4 3 4 2 2 2 2 3 4 4 3 4 6 5 5 5 5 6 5 5 5 5 5 6 7 9 11 12 13 13 14 17 20 23 24 26 26 27 28 30 32 32 33 33 32 31 33 32 32 33 32 32 32 31 31 30 30 29 29 29 28 26 24 22 20 18 19 21 23 25 24 22 22 22 17 13 13 16 18
8 9 9 9 8 7 7 4 1 5 7 5 7 8 9 11 9 6 3 3 4 4 5 4 3 2 2 3 3 3 5 5 6 6 5 6 5 5 5 5 6 7 8 9 9 10 11 12 14 18 22 23 24 26 27 29 30 30 30 29 27 26 24 24 26 26 28 30 31 32 32 32 32 32 31 31 31 30 29 28 26 24 23 21 20 20 22 24 25 23 21 22 21 17 13 14 16
8 9 12 12 12 10 10 8 4 6 6 5 5 7 4 4 9 8 6 5 6 6 6 6 5 4 4 5 5 4 4 4 5 6 6 6 6 6 5 5 6 7 8 9 9 10 11 12 15 18 21 21 20 19 20 22 23 21 19 18 17 18 18 18 18 19 21 23 26 29 30 31 31 31 31 31 30 30 30 29 28 27 26 25 24 22 22 23 25 25 22 19 20 19 14 13 15
7 3 4 8 10 9 9 7 3 4 4 3 4 6 3 2 6 8 7 7 7 7 7 7 6 6 6 5 5 6 5 5 5 5 6 6 6 6 6 6 6 7 8 8 9 11 13 14 17 18 19 20 18 14 13 14 16 17 18 19 18 18 19 18 17 17 18 20 23 27 30 30 31 30 30 30 30 29 29 29 28 27 27 27 26 25 24 23 23 23 23 19 17 18 16 13 13
5 2 2 3 6 8 8 7 6 5 4 2 6 6 5 6 3 7 9 8 8 8 8 8 7 7 7 6 6 7 6 6 5 5 5 6 6 6 6 6 7 7 7 8 10 11 14 15 17 18 18 18 17 16 16 18 22 24 24 23 21 20 20 19 17 17 18 18 20 22 25 28 29 30 30 29 29 28 28 28 27 27 27 26 25 25 24 23 22 22 22 20 16 15 15 13 12
2 4 2 1 2 5 6 6 6 5 4 4 7 6 5 7 3 6 7 7 8 10 11 11 10 9 9 8 8 7 7 6 6 6 6 5 5 5 6 7 7 8 8 9 11 12 14 16 17 18 18 18 19 21 24 26 27 27 25 24 23 20 20 19 17 17 17 17 18 18 19 21 24 27 28 28 27 27 27 26 26 26 26 25 24 24 23 22 23 22 21 21 19 16 14 13 11
2 5 4 3 1 1 3 5 5 4 5 8 8 9 5 6 4 6 5 5 8 9 10 10 11 10 10 10 9 8 7 6 5 6 6 5 5 5 6 7 7 8 9 10 11 12 14 16 18 20 20 21 23 25 28 28 27 26 23 22 22 20 18 17 17 16 16 16 17 17 16 17 19 21 25 27 26 26 26 25 25 25 24 24 24 23 23 22 22 21 20 19 19 18 16 13 12
6 6 4 3 3 2 2 4 3 5 7 8 9 12 8 5 4 5 3 1 4 8 9 10 11 12 11 10 10 9 8 6 5 6 7 6 6 5 6 8 8 8 9 10 12 13 14 16 20 22 22 23 25 26 27 26 25 24 22 22 21 20 18 17 16 16 15 15 15 15 15 16 17 18 22 25 26 25 25 25 25 24 23 23 23 23 22 22 21 19 20 19 18 18 17 14 13
4 4 4 3 3 3 3 4 4 6 6 2 2 6 9 7 4 2 3 3 4 8 10 13 14 14 13 11 10 10 8 8 7 6 7 8 7 7 7 8 9 9 10 11 12 14 16 18 22 24 23 24 25 26 27 26 25 25 24 23 22 20 18 17 17 16 15 14 15 14 14 15 16 17 20 23 25 25 25 25 24 24 24 24 24 23 22 22 21 17 17 19 17 16 16 14 13
5 5 6 5 3 4 5 5 5 6 4 2 3 3 5 7 7 3 4 5 4 5 8 13 16 15 13 12 11 10 8 8 8 7 7 8 8 9 9 9 9 9 10 11 12 14 17 19 22 24 23 23 25 26 27 27 27 27 26 25 24 22 20 18 17 16 15 14 14 14 14 14 15 17 20 22 23 24 24 24 24 24 24 23 23 23 22 21 21 15 12 16 14 12 16 14 10
8 8 7 7 5 5 6 6 5 5 2 2 2 3 3 5 6 3 4 6 4 4 4 10 15 15 14 13 12 10 9 8 8 7 7 8 9 10 10 10 9 9 10 11 12 14 17 17 20 24 23 22 24 25 26 28 28 27 26 25 24 21 19 18 17 16 15 15 15 14 14 13 14 17 19 21 22 22 22 22 22 21 21 21 20 21 20 18 20 15 9 14 14 11 17 16 11
9 8 6 7 5 4 5 5 4 3 2 2 2 3 4 4 2 2 4 5 4 4 3 8 12 13 12 12 11 10 10 9 7 8 8 9 10 10 10 10 10 10 11 11 11 13 15 16 19 23 22 22 24 26 27 27 26 25 24 23 21 19 18 17 17 16 16 15 15 14 14 13 13 15 17 19 19 20 20 19 19 18 18 19 18 19 19 17 19 15 8 12 13 12 17 17 13
7 5 5 6 4 3 2 1 1 2 1 2 5 3 3 2 3 3 4 3 5 5 4 8 12 13 12 11 11 10 9 9 8 8 8 10 11 10 10 10 10 11 11 11 12 13 15 17 18 20 22 23 24 25 25 25 24 22 22 21 19 18 18 17 17 17 16 16 15 15 15 15 14 14 16 17 17 17 18 17 17 16 17 19 18 19 19 18 19 15 10 13 13 13 18 17 14
5 5 6 2 2 3 2 1 2 1 5 4 5 4 3 2 3 4 6 5 6 6 7 9 11 13 13 11 10 10 10 9 9 8 9 11 12 11 11 11 11 12 12 12 12 14 17 18 19 21 23 22 22 22 22 21 21 20 19 20 19 18 18 18 18 18 17 16 15 14 14 14 14 14 15 16 16 16 18 18 18 18 19 20 19 19 19 20 20 16 14 14 11 12 17 16 13
3 5 5 3 2 2 2 4 1 3 8 4 5 8 5 4 3 4 7 7 8 8 9 10 11 12 12 11 11 11 10 10 10 9 10 12 13 12 12 11 12 12 13 13 14 16 18 18 20 21 21 21 19 19 18 18 19 19 18 19 19 19 19 18 17 16 15 14 13 12 12 12 13 13 14 15 16 17 18 19 19 19 20 20 19 20 20 20 20 17 15 13 10 13 17 16 14
1 2 2 2 2 4 4 5 4 5 7 5 5 8 7 6 4 5 9 11 11 11 10 11 13 13 12 12 13 13 11 10 10 10 10 12 13 13 13 12 12 13 14 14 15 17 17 17 19 20 20 19 18 17 17 18 20 20 19 18 18 18 18 17 16 14 14 13 12 11 11 12 12 13 14 15 16 17 18 19 19 19 19 19 19 20 20 20 19 17 16 14 14 16 18 17 16
1 2 2 1 2 3 4 4 3 4 6 6 4 5 5 6 5 8 12 12 13 13 11 12 14 14 13 12 13 13 12 11 10 10 10 12 14 14 14 13 13 14 14 14 16 17 17 17 17 18 18 18 18 18 19 19 20 20 19 18 18 17 16 15 14 13 13 12 11 11 11 11 12 13 15 16 16 18 18 18 19 18 19 19 19 19 19 19 18 17 17 17 17 19 19 18 17
7 6 7 5 2 0 2 3 3 3 5 6 6 5 3 1 1 2 6 9 13 14 12 11 12 13 13 13 13 13 12 11 11 10 10 13 15 14 14 14 13 14 13 14 15 15 16 16 16 17 18 18 18 17 18 19 19 19 18 18 16 15 14 14 13 12 11 11 10 10 11 11 12 13 15 16 17 18 18 19 19 19 19 19 19 19 19 19 18 18 18 19 20 19 19 19 19
7 8 9 9 7 4 3 5 3 1 4 4 5 7 2 3 3 4 5 4 6 10 11 9 10 12 13 12 13 13 12 12 12 11 11 13 15 15 15 15 14 14 14 15 15 15 16 16 16 18 18 17 17 16 17 18 18 17 17 16 15 14 13 12 12 11 9 9 9 10 11 11 11 13 16 17 17 18 19 19 20 19 19 19 19 19 20 20 19 19 18 19 20 19 18 19 18
Wind_Direction
337 327 323 321 307 289 268 251 238 159 272 88 77 108 78 47 47 69 79 61 108 64 20 10 7 335 319 325 340 347 351 5 11 8 51 85 69 65 158 67 57 138 152 158 165 178 170 166 167 168 171 171 171 166 162 157 152 147 139 136 136 132 131 135 132 131 127 124 128 124 119 117 116 112 113 116 114 108 100 95 88 84 77 67 56 47 48 49 43 37 31 26 26 22 21 16 15
335 326 311 302 282 276 268 230 263 127 144 98 73 67 93 120 92 53 52 38 50 43 6 355 346 340 305 283 296 299 27 38 32 48 75 103 97 49 147 159 68 136 153 161 161 171 172 172 170 170 174 173 174 169 163 161 156 152 146 146 147 140 137 140 139 136 133 132 134 132 126 124 123 119 117 115 110 101 93 90 85 81 69 59 53 48 49 40 26 16 10 12 17 19 21 13 6
331 327 306 282 256 252 253 236 264 151 125 93 87 86 118 110 71 58 49 36 37 18 341 327 284 338 276 240 297 321 69 69 43 55 79 72 80 25 18 180 92 138 154 164 163 165 174 181 175 173 176 175 174 170 166 164 161 158 153 153 152 145 144 147 146 144 143 140 138 138 132 128 127 124 123 116 108 100 94 92 85 78 66 61 60 53 48 36 25 11 0 3 9 19 29 20 7
332 321 306 280 242 225 250 250 299 310 82 93 108 104 90 79 74 68 60 43 34 4 339 326 265 65 313 354 21 344 67 77 48 25 62 57 24 356 332 195 88 137 159 164 167 164 179 190 180 176 178 178 176 172 171 169 166 164 157 155 153 151 151 151 152 151 151 146 139 137 135 132 131 130 130 122 113 108 104 101 87 75 69 66 63 53 44 38 31 11 2 6 11 28 40 33 16
331 304 295 282 260 251 284 278 313 337 50 61 113 110 91 82 80 76 72 63 51 16 353 330 10 100 351 23 359 343 34 62 59 34 34 50 4 350 344 167 67 148 167 164 169 165 185 197 186 181 181 182 178 176 177 175 172 167 162 160 156 158 158 153 154 152 153 149 141 138 134 135 138 139 134 128 123 119 115 107 84 68 69 68 61 53 44 41 33 12 12 18 24 35 42 40 27
312 290 271 268 285 328 267 198 129 84 40 11 100 113 98 84 77 80 97 93 79 40 6 340 360 357 148 79 37 29 23 347 29 31 12 356 343 355 89 118 41 146 163 167 170 168 191 201 194 186 185 187 182 181 180 178 176 170 165 167 167 168 163 157 156 150 153 153 147 144 142 146 151 146 138 135 132 127 122 104 78 70 69 65 60 56 49 44 33 18 21 25 28 34 43 43 35
303 293 233 232 163 242 264 111 75 97 48 12 79 104 97 87 73 92 126 113 118 103 17 9 355 306 79 98 79 63 42 18 10 16 2 347 345 44 102 67 40 118 150 166 167 175 199 203 201 193 188 191 188 188 185 183 180 173 170 171 174 176 166 161 161 153 157 161 153 155 157 158 159 150 144 139 129 128 125 102 85 79 67 60 56 57 55 48 33 24 24 24 29 33 39 42 39
298 301 219 253 188 215 283 94 62 74 79 52 70 79 84 77 43 26 83 62 70 81 27 36 344 309 84 99 108 80 48 38 50 34 17 8 16 101 105 58 55 104 133 153 165 184 206 209 205 196 192 195 195 197 193 190 187 176 173 172 174 178 171 166 167 160 163 166 160 163 166 167 163 155 153 136 112 116 124 110 93 77 63 60 54 52 55 47 32 26 24 24 31 33 35 39 38
272 278 238 259 227 177 218 115 88 83 104 102 92 85 83 72 27 358 43 70 51 36 41 28 332 331 52 159 107 91 47 41 63 44 25 21 34 101 108 85 76 87 115 132 158 185 210 217 205 196 195 199 201 206 202 196 193 183 177 175 174 176 173 173 176 168 169 172 169 171 170 173 166 159 156 139 116 118 121 109 93 74 63 62 54 46 42 34 28 25 25 26 31 33 34 35 34
249 254 288 262 250 180 176 132 116 113 112 104 98 92 89 81 47 349 351 67 44 356 63 27 303 343 347 153 100 97 49 39 51 35 22 20 31 87 118 132 110 92 102 124 141 172 213 226 202 194 198 202 203 208 209 203 198 193 183 180 175 172 172 179 182 176 178 179 176 178 175 177 171 166 163 151 131 125 122 108 92 77 66 58 47 35 26 20 20 21 24 28 31 32 34 33 30
241 135 304 255 235 202 167 132 124 117 122 121 102 83 71 69 249 230 303 55 63 311 85 15 276 360 311 195 94 113 66 38 36 24 16 18 19 48 122 161 136 121 123 138 133 154 199 234 204 197 202 205 206 208 212 210 206 202 191 188 180 173 172 181 188 183 188 190 185 185 181 182 174 169 166 159 147 133 124 111 93 77 65 50 34 22 14 9 11 15 20 26 30 30 33 32 28
283 106 254 255 264 10 38 117 124 119 138 143 115 83 48 142 247 256 309 350 54 228 101 23 349 351 283 194 113 131 71 35 26 10 8 20 12 20 63 160 148 142 143 152 141 144 174 225 215 205 208 210 211 212 214 214 212 209 200 200 194 183 176 178 195 191 195 202 199 198 187 181 178 174 170 165 157 140 129 118 97 77 58 39 23 11 6 5 10 15 17 21 26 28 33 34 30
332 353 272 274 18 5 60 117 124 135 155 140 102 84 340 220 280 359 335 307 303 273 75 39 349 303 277 272 132 143 64 27 12 359 358 14 21 19 38 71 150 143 142 150 142 143 163 185 209 211 216 218 217 218 220 218 213 214 211 206 204 198 186 181 195 195 200 210 214 219 198 175 183 186 185 172 162 153 142 135 109 73 40 24 15 8 5 6 13 18 17 16 21 26 30 34 34
335 353 297 323 71 275 117 133 142 177 164 116 78 67 180 203 35 355 315 295 321 30 41 32 319 287 265 259 153 133 26 7 357 354 351 4 40 40 50 42 5 84 108 118 128 144 162 178 188 206 221 224 222 225 228 226 220 214 215 211 209 205 196 192 192 194 201 212 220 228 223 188 190 198 205 180 167 175 166 153 123 67 24 14 12 6 2 4 11 18 20 16 14 22 28 33 36
329 323 286 188 166 204 157 334 160 217 157 115 76 32 180 131 61 306 310 309 357 47 3 220 276 306 306 295 47 26 352 351 348 346 346 4 60 68 68 61 34 31 45 97 119 146 165 185 191 198 212 220 218 223 229 231 228 220 218 214 213 209 205 203 197 196 195 209 220 230 236 227 211 207 212 193 181 194 184 174 165 100 357 2 1 354 356 3 10 15 17 18 14 14 25 33 36
326 293 256 210 193 212 170 174 184 225 133 112 99 27 261 157 132 281 20 321 310 37 298 244 176 303 352 3 11 0 346 352 350 345 349 5 104 110 86 74 74 46 26 57 104 151 177 183 195 202 207 215 213 217 222 229 231 226 222 217 217 213 208 208 202 201 192 200 215 224 232 239 248 229 222 207 195 196 193 204 214 233 311 336 338 342 357 7 14 16 15 18 18 11 18 34 36
289 260 252 217 187 200 153 172 176 145 120 117 117 38 293 177 147 233 57 268 269 283 289 17 89 46 39 45 20 6 359 5 4 9 35 30 79 124 89 56 66 66 44 53 65 84 194 188 195 203 207 213 213 217 221 227 233 231 226 220 223 219 212 213 209 209 202 197 204 213 224 232 237 234 234 214 202 204 211 223 224 241 275 299 325 341 359 8 16 19 17 16 19 18 22 29 28
277 261 259 246 129 105 78 105 94 99 123 119 107 39 321 299 11 53 280 233 224 265 247 106 86 80 72 63 36 21 17 19 22 31 45 41 41 52 53 38 34 43 38 44 40 24 348 230 212 208 207 211 211 217 220 225 236 238 230 223 224 223 221 220 217 216 212 207 204 204 210 214 219 227 227 209 205 210 210 209 218 247 257 281 324 342 353 4 15 22 20 18 24 29 29 22 12
306 315 270 50 58 71 57 53 72 65 84 84 94 59 330 314 350 5 309 269 236 263 202 136 119 105 80 56 38 29 26 28 30 34 42 39 35 32 26 23 20 19 12 6 356 353 345 282 237 221 212 210 209 213 217 220 231 236 231 225 222 222 224 223 219 217 213 213 209 205 210 207 209 219 217 205 204 209 209 209 230 255 249 280 314 332 349 2 13 25 26 28 34 33 27 19 8
352 314 276 84 69 83 90 73 68 48 42 332 30 71 297 293 327 316 313 300 275 269 81 133 135 92 60 48 34 25 27 32 33 34 40 36 31 28 19 13 8 4 358 350 347 350 346 318 269 236 221 211 207 211 212 215 221 221 224 224 217 215 219 220 217 216 214 213 209 204 212 211 204 209 216 215 206 208 214 218 234 249 245 272 296 306 348 10 14 18 33 41 40 31 23 20 22
357 313 340 80 76 108 116 111 80 53 16 315 328 307 275 262 303 295 300 294 267 88 40 8 16 36 36 41 32 25 28 30 31 32 36 33 29 23 15 9 2 357 351 351 351 348 342 322 275 236 228 216 207 208 210 211 213 214 218 221 219 214 216 217 214 216 217 218 218 210 215 223 212 205 212 214 203 208 216 213 223 241 241 249 269 258 273 22 37 351 27 42 37 28 36 40 46
281 30 35 72 17 22 105 104 90 77 327 283 276 276 313 336 277 274 272 284 351 61 27 15 15 31 38 31 26 29 32 29 29 27 28 28 24 19 12 5 0 357 355 354 348 340 341 332 287 219 216 221 209 204 209 209 209 209 212 217 222 219 220 218 210 214 217 221 223 215 218 231 224 211 206 203 198 206 209 204 215 229 225 223 234 225 217 196 95 170 38 41 30 29 43 44 49
287 112 88 71 348 342 87 102 127 154 248 253 269 310 343 284 267 256 263 299 59 55 40 52 44 49 48 37 36 36 37 33 30 25 22 22 19 15 9 4 360 355 354 352 346 342 341 339 307 213 193 212 209 204 206 205 207 204 209 215 215 221 227 221 218 221 219 221 227 226 228 235 236 222 211 208 205 208 211 208 211 214 216 219 220 222 214 199 185 170 141 64 42 28 25 30 37
282 13 120 92 331 287 313 113 167 208 250 261 293 319 278 263 264 216 209 75 78 75 66 64 62 68 61 54 49 42 43 37 35 30 25 23 20 17 10 5 0 355 356 353 348 348 342 343 332 228 191 200 200 199 202 199 203 198 201 211 206 208 220 228 233 225 218 223 232 236 232 234 238 232 223 217 214 217 219 219 217 217 222 223 217 227 225 198 193 175 173 79 62 36 9 25 28
258 342 102 115 264 259 267 244 233 232 248 255 255 263 259 257 255 199 163 94 91 94 83 79 80 73 62 53 45 44 46 39 34 29 30 29 22 21 15 7 4 2 1 356 353 352 348 348 347 296 189 191 186 185 192 191 193 192 184 203 211 209 212 240 248 212 220 223 224 239 237 244 246 239 233 223 222 226 225 226 225 227 232 232 227 225 228 224 207 185 207 29 95 69 9 26 23
46 1 47 253 252 251 255 254 252 241 243 222 236 258 249 205 191 183 130 106 113 112 102 91 83 63 52 46 36 33 35 33 27 22 24 28 23 20 16 10 8 6 2 1 1 0 2 3 4 24 169 172 172 171 175 180 173 160 126 130 192 203 186 155 100 99 88 118 139 250 241 255 257 246 239 229 228 230 228 230 226 224 226 224 224 225 228 226 196 176 185 83 127 96 30 28 19
11 329 294 271 262 259 246 248 255 246 247 223 239 265 203 136 208 201 121 130 140 134 125 95 77 64 52 44 38 28 27 25 18 17 19 21 21 14 12 10 6 6 6 12 15 16 24 35 40 45 140 150 149 152 151 150 134 121 115 109 116 124 121 121 115 101 93 106 112 76 228 288 283 260 244 226 222 231 233 232 221 215 218 220 229 243 244 230 204 183 169 157 171 140 51 352 351
323 313 293 268 253 250 236 239 247 236 244 217 231 259 169 152 218 175 122 143 159 153 135 116 99 80 66 52 49 36 30 25 16 18 19 17 17 11 11 10 4 5 11 18 24 33 46 58 65 69 128 138 132 139 141 137 129 120 119 111 104 101 96 100 100 95 90 89 95 95 90 55 15 325 277 226 221 236 246 240 222 214 225 243 252 262 257 243 229 199 179 183 194 153 67 295 290
296 289 290 285 265 250 227 212 208 220 203 154 208 246 207 195 184 123 127 151 165 169 155 138 121 99 90 68 64 56 41 34 30 25 19 16 15 13 13 10 6 10 18 24 34 48 53 56 68 90 132 137 125 129 128 125 128 120 109 104 99 95 89 87 87 89 85 80 79 77 81 72 43 20 15 42 191 195 47 39 172 154 199 284 294 308 281 253 234 218 227 242 221 199 225 263 281
280 257 274 297 281 243 168 149 172 209 155 147 207 268 213 181 147 116 133 159 171 179 165 152 133 114 111 85 84 71 54 40 40 33 21 18 15 16 15 10 12 22 29 36 45 46 46 54 77 102 126 136 126 121 115 111 117 116 106 100 98 97 93 89 86 86 83 80 76 74 78 78 73 65 62 77 91 93 85 80 86 79 69 59 56 54 40 39 35 334 331 319 319 312 277 274 281
262 268 248 262 281 184 136 144 176 200 147 164 215 281 226 152 136 121 138 168 184 194 167 157 147 119 113 103 107 88 72 51 44 36 25 24 21 20 17 12 22 36 42 52 53 46 52 68 88 103 116 128 125 118 113 108 107 109 107 101 98 100 101 96 90 86 85 87 86 86 87 88 89 86 84 90 95 97 96 91 84 77 76 72 67 65 58 58 50 34 31 18 8 354 332 311 310
231 267 255 226 253 177 148 149 192 220 151 171 210 269 215 149 148 129 133 178 193 204 175 153 154 128 122 116 101 95 95 73 53 38 27 27 26 24 20 17 31 45 51 60 63 66 78 83 90 101 107 113 116 114 111 106 102 102 102 101 99 102 103 100 95 92 94 97 97 96 97 100 99 96 93 92 94 91 87 85 78 71 73 76 69 65 66 64 55 47 44 49 46 16 6 353 343
212 230 269 257 254 251 170 144 177 211 155 182 209 262 293 141 150 146 148 182 193 200 180 156 157 141 130 122 97 98 103 85 58 36 25 25 27 27 25 25 39 53 57 64 73 85 92 92 94 98 100 102 108 111 110 105 102 100 100 101 101 102 102 101 100 98 97 95 95 95 96 100 100 101 100 97 96 91 85 83 80 73 70 70 62 58 61 58 51 45 35 37 42 27 11 4 354
213 204 255 268 259 265 261 165 153 174 202 219 219 247 277 190 149 162 167 178 200 200 179 162 158 152 145 129 119 113 90 69 47 29 21 22 27 31 30 30 43 56 59 65 80 92 98 99 98 97 100 102 104 107 107 105 104 102 101 100 100 99 98 97 97 96 94 92 91 91 92 93 93 95 95 95 95 92 88 85 83 80 75 71 63 57 57 52 48 43 30 24 28 25 14 2 352
278 249 264 273 257 247 261 256 154 181 212 245 245 245 265 243 159 161 168 179 205 192 166 163 160 156 156 155 147 120 92 67 45 25 20 23 26 33 34 35 49 60 65 75 85 94 101 104 102 101 102 104 105 105 103 103 102 100 99 98 95 94 92 91 89 89 89 88 87 85 86 88 88 88 85 86 88 87 85 81 79 77 72 69 63 58 54 49 44 38 34 31 23 23 19 4 348
297 291 291 287 277 260 268 278 130 183 242 248 257 258 265 261 197 164 164 183 195 179 164 167 168 165 164 161 149 130 108 73 49 28 25 29 31 37 42 44 56 66 73 84 89 92 99 105 104 102 102 105 106 105 103 101 99 97 96 92 89 86 85 86 85 84 84 83 84 83 83 83 84 85 82 78 76 76 76 74 70 67 67 68 64 60 55 51 45 33 32 34 31 25 18 8 358
296 284 280 272 270 270 273 270 122 129 271 256 263 267 266 271 251 173 158 178 188 187 184 180 177 172 171 162 148 139 115 83 60 47 40 40 41 45 55 55 59 69 74 83 91 95 101 106 105 101 101 104 105 104 103 101 100 98 94 89 85 82 83 85 84 84 84 84 84 83 83 83 84 85 84 80 75 72 72 71 66 60 61 64 64 63 59 58 55 49 45 37 37 32 20 12 11
270 268 271 266 261 267 272 256 129 125 260 267 273 272 263 268 261 175 161 187 191 192 192 186 181 169 168 165 156 145 120 111 103 82 64 57 53 52 62 63 60 66 70 79 91 102 108 109 105 102 106 108 105 106 106 103 102 101 99 96 93 90 88 88 85 84 85 86 85 83 82 82 82 82 83 84 80 76 73 72 69 62 58 58 61 61 58 59 56 53 53 42 35 35 30 18 18
261 256 259 264 261 271 268 231 147 145 242 279 281 276 269 270 253 160 171 196 171 176 193 181 178 175 178 170 161 154 139 129 117 101 86 77 66 63 69 66 63 66 71 81 92 102 107 106 104 108 114 114 111 111 110 108 105 104 104 102 100 96 93 91 89 88 87 86 84 83 82 81 81 80 80 82 81 78 74 72 70 63 58 56 57 56 53 54 51 47 47 44 35 32 36 25 23
245 243 249 258 255 262 264 221 136 182 238 284 294 284 273 266 226 142 154 165 131 147 190 176 185 185 174 157 156 157 148 137 124 111 98 95 85 75 74 68 70 73 72 80 88 93 95 95 99 107 112 114 116 116 114 113 111 109 106 102 100 96 93 91 89 87 86 84 83 82 81 80 80 79 78 78 78 77 75 72 67 60 56 53 52 50 49 49 47 43 42 43 39 27 28 27 25
235 231 237 255 261 252 258 262 231 242 238 246 271 278 271 250 214 171 139 149 165 176 180 184 185 179 152 143 153 149 138 135 131 121 108 106 102 89 81 79 81 79 77 81 81 81 86 89 96 104 105 106 108 111 112 112 111 108 104 100 97 93 87 83 81 79 79 79 79 78 77 77 77 76 75 74 73 72 71 69 66 62 58 54 51 48 46 47 47 44 39 39 40 33 25 23 24
250 233 230 247 266 266 266 275 288 280 258 196 222 268 278 211 198 182 151 167 184 177 185 190 173 169 176 172 166 151 133 126 123 121 118 113 112 108 96 89 88 81 81 84 84 87 93 96 101 106 107 106 104 105 108 108 107 106 104 102 98 93 85 77 76 77 75 75 75 75 74 73 73 72 70 69 68 66 65 64 62 61 59 56 53 50 47 44 44 45 42 38 38 38 34 26 23
263 256 225 237 260 264 262 264 244 270 284 146 195 261 280 219 193 164 154 178 178 174 191 187 172 175 181 177 163 156 148 134 124 123 125 121 120 120 108 95 89 85 85 86 90 98 106 109 112 113 114 114 111 107 107 111 112 110 106 101 97 96 93 87 85 84 82 78 76 74 71 70 69 67 66 64 63 61 60 59 57 57 56 53 51 48 46 43 41 42 42 40 35 35 36 31 22
260 36 49 217 247 254 246 241 228 257 298 184 203 239 273 276 231 150 159 179 175 183 194 184 180 181 175 171 158 154 148 141 139 133 129 123 118 117 111 99 91 91 91 93 97 106 113 116 119 119 117 116 117 117 118 120 119 114 107 101 96 96 96 95 92 88 85 81 76 71 68 66 65 63 62 60 58 57 56 55 53 52 51 50 48 46 44 42 41 39 38 40 37 32 32 29 22
256 71 54 185 259 263 242 235 237 253 280 250 212 199 245 264 214 142 163 191 198 195 190 184 181 175 171 167 157 153 146 143 144 136 130 123 113 106 104 100 92 93 95 101 108 113 117 119 120 120 116 115 118 122 121 119 117 112 107 103 99 98 97 97 94 89 85 81 77 73 67 64 61 60 59 57 55 54 53 52 50 48 48 46 44 43 41 38 37 36 34 34 35 34 31 29 23
134 112 93 88 104 245 224 234 244 240 247 254 222 187 222 271 216 165 176 220 219 194 181 181 175 170 170 165 158 157 149 144 141 135 132 125 115 103 101 103 96 94 97 102 107 111 114 118 121 119 116 115 118 120 119 116 113 109 104 103 102 100 99 97 94 90 86 82 78 74 69 65 60 57 55 53 52 49 48 47 46 44 42 40 38 36 35 33 31 31 30 28 28 29 28 29 24
137 145 126 124 163 173 213 231 243 252 244 246 227 200 210 271 244 188 177 223 190 166 168 172 168 169 169 164 160 158 154 151 148 142 137 130 124 116 113 113 106 102 102 102 104 106 109 115 120 119 116 118 119 119 117 113 110 107 102 100 99 99 100 97 94 89 85 83 79 74 70 65 61 56 51 49 46 44 42 41 40 38 36 35 33 31 29 29 27 24 24 24 23 23 22 23 18
163 171 165 175 183 178 216 213 207 247 244 230 230 201 208 238 248 166 105 79 133 157 170 171 169 171 167 162 161 158 158 157 154 152 148 144 142 138 131 124 117 111 108 106 105 108 111 116 121 119 117 119 119 118 117 112 109 106 102 100 98 98 99 96 93 90 85 82 78 75 71 65 60 55 49 44 40 38 37 35 33 31 29 28 27 25 24 23 24 21 18 20 20 18 17 18 14
195 186 183 196 199 190 214 203 201 236 233 102 93 153 214 239 245 230 127 124 142 155 172 171 167 167 163 160 159 158 159 160 161 161 156 156 154 149 143 136 128 120 115 112 109 112 116 118 121 120 117 118 118 117 116 113 111 109 107 105 103 101 98 95 92 89 85 81 79 75 70 65 59 52 46 41 36 33 30 29 28 26 24 23 21 21 21 18 20 20 12 14 16 11 12 15 8
193 190 186 198 205 212 220 208 215 233 209 83 127 156 224 244 246 250 117 116 106 89 148 169 165 163 161 158 157 157 160 163 166 164 162 163 158 152 149 143 135 128 124 119 115 118 120 119 121 122 119 119 120 118 116 115 113 112 110 108 105 102 98 95 92 89 87 83 80 76 70 66 59 51 43 38 34 30 27 25 23 22 20 19 16 16 17 13 14 18 9 6 11 6 7 11 1
196 199 201 217 228 244 238 219 235 235 125 123 159 176 217 206 173 74 86 94 92 81 111 154 158 157 154 154 156 159 163 167 168 167 167 164 156 153 153 149 142 137 133 127 122 123 123 122 125 124 122 122 123 121 119 117 116 113 112 110 106 103 100 97 94 91 89 85 82 78 72 67 60 49 40 35 31 28 26 23 20 18 16 16 13 11 12 9 9 15 2 355 2 358 360 5 358
189 199 219 235 259 282 272 254 349 38 26 202 185 226 252 164 116 118 123 120 125 122 127 148 157 155 152 157 161 164 169 170 170 170 170 163 157 156 157 153 148 142 140 135 131 131 130 128 127 126 127 127 125 124 122 120 118 115 113 111 108 105 102 99 97 93 90 87 83 77 69 65 59 49 40 36 31 24 22 21 19 16 12 13 12 8 8 6 7 10 357 353 357 350 352 357 350
166 187 209 212 355 325 270 200 94 96 275 244 172 220 256 154 164 153 149 153 145 145 156 160 161 158 159 165 167 171 173 171 172 173 170 165 160 161 162 159 154 149 147 144 140 140 139 136 134 131 131 130 127 126 124 121 119 115 114 113 110 107 105 101 98 94 90 86 81 75 68 63 57 47 38 34 28 22 18 17 16 13 11 10 8 6 3 2 5 6 357 354 349 340 345 348 338
157 189 189 121 35 328 270 254 234 221 257 254 179 210 213 189 207 154 156 176 170 166 166 166 168 166 170 175 172 173 172 169 173 173 172 169 165 166 167 162 157 155 152 148 146 146 145 142 140 137 135 134 131 129 127 125 124 121 117 116 114 111 108 104 100 96 91 89 83 77 69 60 52 43 35 30 24 19 16 14 13 10 8 7 4 2 360 358 0 360 354 349 337 332 338 340 333
263 253 186 139 216 216 199 227 252 241 248 259 214 211 212 213 200 157 178 188 179 175 169 172 180 179 180 180 174 173 171 168 173 176 176 173 171 171 168 163 159 157 155 153 152 150 147 143 142 141 139 139 138 136 135 134 132 129 125 123 120 116 112 108 105 102 97 93 86 78 67 56 48 38 31 27 22 18 14 12 10 7 5 3 360 358 356 355 356 354 347 342 335 335 337 335 332
259 285 221 198 259 233 198 207 239 245 247 259 237 207 214 223 198 175 187 185 175 173 171 182 189 186 185 181 176 177 176 174 176 179 179 175 173 173 169 165 161 158 159 158 156 152 148 145 144 145 145 145 146 144 142 141 139 136 132 130 126 121 119 115 112 109 100 93 85 74 62 49 41 32 27 24 19 15 12 8 6 3 1 358 356 355 353 352 352 348 344 340 337 337 337 332 327
186 201 199 187 175 209 273 238 229 243 249 252 254 251 225 170 63 162 173 169 173 174 175 186 191 188 187 183 179 180 178 178 177 178 178 172 171 172 169 166 162 159 160 161 160 155 150 150 151 153 153 151 149 147 147 148 145 141 139 135 132 129 127 123 118 113 103 93 82 67 54 43 35 27 23 20 15 11 8 5 2 1 358 355 354 352 351 350 347 344 341 339 338 336 332 328 324
195 200 199 193 179 160 209 225 198 206 251 248 263 273 258 101 41 30 62 93 152 167 173 181 185 187 187 185 185 183 180 180 178 176 176 169 169 171 169 166 164 163 164 165 164 161 157 158 158 160 159 157 155 153 152 151 147 146 146 142 140 138 135 131 126 119 107 92 78 61 49 42 32 22 18 15 11 7 3 1 359 356 353 351 350 348 347 346 344 341 339 336 335 332 326 323 319